Preview of NWS' New Version of Forecast
This preview is not operational and should not be used for support decisions.

Regional Weather Roundup (RWR)

Issued by National Weather Service (NWS)

                            
000
ASUS45 KBOI 181610
RWRID 

IDAHO REGIONAL WEATHER ROUNDUP
NATIONAL WEATHER SERVICE BOISE ID
900 AM MST MON FEB 18 2019

NOTE: "FAIR" INDICATES FEW OR NO CLOUDS BELOW 12000 FEET
WITH NO SIGNIFICANT WEATHER AND/OR OBSTRUCTIONS TO VISIBILITY

IDZ012-014-181700-
SOUTHWEST IDAHO

  
CITY           SKY/WX    TMP DP  RH WIND       PRES   REMARKS
BOISE          SUNNY     23  19  85 CALM      30.13R                  
CALDWELL       CLOUDY    29  22  75 W15       30.16R WCI  18          
MOUNTAIN HOME  SUNNY     27  27 100 NW17        N/A  WCI  15          
$$

IDZ016-017-181700-
SOUTHCENTRAL IDAHO

  
CITY           SKY/WX    TMP DP  RH WIND       PRES   REMARKS
BURLEY         CLOUDY    19  13  77 SW5       30.04R WCI  12          
JEROME         CLOUDY    22  20  92 SW8       30.06R FOG     WCI  12  
TWIN FALLS     CLOUDY    21  19  92 W15       30.05R WCI   8          
$$

IDZ019>023-181700-
SOUTHEAST IDAHO

  
CITY           SKY/WX    TMP DP  RH WIND       PRES   REMARKS
IDAHO FALLS    SUNNY     -5  -8  87 CALM      30.02R                  
POCATELLO      MOSUNNY   14   8  77 W6        30.05R WCI   5          
REXBURG        SUNNY      3  -4  72 NE6       30.00R WCI  -8          
$$

IDZ006-010-011-018-031-032-181700-
CENTRAL IDAHO MOUNTAINS

  
CITY           SKY/WX    TMP DP  RH WIND       PRES   REMARKS
MCCALL         MOSUNNY   15  10  80 NW7       30.01R WCI   5          
HAILEY         PTSUNNY    7   0  72 W9        30.00R WCI  -7          
STANLEY          N/A      5   0  79 CALM      29.95R                  
SALMON         CLOUDY    16   9  74 CALM      30.08R                  
CHALLIS        CLOUDY    14   8  77 CALM      29.99R                  
$$

IDZ002-004-006-007-026-181700-
NORTHERN IDAHO

  
CITY           SKY/WX    TMP DP  RH WIND       PRES   REMARKS
LEWISTON       SUNNY     21  10  62 NW5       30.34R WCI  15          
LOWELL         NOT AVBL                                               
COEUR D'ALENE  MOSUNNY   10   3  73 E3        30.30R                  
MULLAN PASS    MOSUNNY   -1  -6  79 SE6       29.96R WCI -13          
$$